[[{"header":{"parameterUnit":"m.s-1","parameterCategory":1,"la1":30.2991,"la2":30.254,"lo1":-89.0895,"lo2":-89.0444,"dy":0.0017,"dx":0.0017,"nx":28,"ny":28,"refTime":"2024-12-22T03:00:00:Z","depth":0,"parameterNumber":2,"parameterNumberName":"U-component_of_WINDS"},"data":[0,0,0,0,0,0,0,0,0,0,0,0,0,0,0,0,0,0,0,0,0,0,0,0,0,0,0,0,0,0,0,0,0,0,0,0,0,0,0,0,0,0,0,0,0,0,0,0,0,0,0,0,0,0,0,0,0,0,-3.8606,-3.8606,0,-3.8639,-3.8639,-3.864,-3.8504,-3.85,-3.8496,-3.8492,-3.8526,-3.8531,-3.8535,0,0,0,0,0,0,0,0,0,0,0,0,0,-3.8425,-3.8429,-3.8606,-3.8606,-3.8607,-3.8639,-3.8639,-3.864,-3.8505,-3.85,-3.8495,-3.8491,-3.8525,-3.853,-3.8536,0,0,0,0,0,0,0,0,0,0,0,0,0,-3.8486,-3.8431,-3.8606,-3.8543,-3.8538,-3.8639,-3.8639,-3.864,-3.8506,-3.85,-3.8494,-3.8488,-3.8523,-3.853,-3.8537,-3.8699,0,0,-3.8558,-3.8561,0,0,0,0,0,0,0,0,-3.8483,-3.8493,-3.8552,-3.8548,-3.8542,-3.8561,-3.8588,-3.866,-3.8507,-3.8518,-3.8492,-3.8485,-3.8543,-3.8548,-3.8567,-3.8701,-3.8702,-3.8558,-3.8563,-3.8566,-3.8568,0,0,0,0,0,0,0,-3.8479,-3.849,-3.8619,-3.8553,-3.8547,-3.8513,-3.8515,-3.8601,-3.8564,-3.8517,-3.8507,-3.8513,-3.8539,-3.8561,-3.8567,-3.8703,-3.8558,-3.8564,-3.8569,-3.8571,-3.8968,-3.8975,0,0,0,0,0,0,-3.8483,-3.8488,-3.8618,-3.862,-3.8497,-3.8521,-3.8524,-3.8561,-3.8562,-3.8557,-3.8518,-3.8506,-3.8552,-3.8559,-3.8568,-3.8755,-3.8566,-3.8572,-3.8576,-3.8962,-3.897,-3.8977,0,0,0,0,0,0,-3.8479,-3.8496,-3.8617,-3.8551,-3.8564,-3.8531,-3.8574,-3.8565,-3.8586,-3.8563,-3.8556,-3.8547,-3.8547,-3.8558,-3.8667,-3.8755,-3.8575,-3.8581,-3.8955,-3.8965,-3.8973,-3.9135,0,0,0,0,0,0,-3.8475,-3.8495,-3.8557,-3.8554,-3.8568,-3.8716,-3.858,-3.857,-3.8599,-3.8584,-3.8588,-3.8583,-3.8543,-3.8657,-3.8674,-3.8761,-3.8587,-3.8946,-3.8959,-3.897,-3.9121,-3.9148,-3.9172,0,0,0,0,0,-3.8469,-3.8602,-3.8561,-3.8577,-3.8645,-3.8721,-3.873,-3.8681,-3.8607,-3.8668,-3.8652,-3.8583,-3.8743,-3.8669,-3.8687,-3.8778,-3.8941,-3.8955,-3.8969,-3.911,-3.9143,-3.9171,0,0,0,0,0,0,-3.8616,-3.86,-3.8554,-3.869,-3.8708,-3.8698,-3.8774,-3.8718,-3.8757,-3.8742,-3.868,-3.8682,-3.8801,-3.8801,-3.8719,-3.8934,-3.8829,-3.8848,-3.893,-3.8961,-3.8986,-3.8983,-3.8593,0,0,0,0,0,-3.8665,-3.8729,-3.8711,-3.8833,-3.8844,-3.8808,-3.884,-3.8801,-3.8816,-3.8823,-3.8816,-3.8834,-3.8888,-3.8925,-3.8973,-3.9121,-3.9119,-3.9192,-3.9217,-3.9238,-3.9254,-3.933,-3.9362,-3.9024,-3.9024,-3.9024,0,0,-3.8765,-3.8764,-3.8809,-3.8862,-3.8871,-3.8938,-3.8815,-3.8892,-3.894,-3.8835,-3.8936,-3.8932,-3.8948,-3.9077,-3.9133,-3.908,-3.9347,-3.9257,-3.9274,-3.9278,-3.9348,-3.938,-3.9409,-3.9034,-3.9032,-3.903,0,0,-3.8982,-3.8989,-3.9089,-3.9101,-3.9116,-3.9091,-3.9116,-3.9115,-3.9107,-3.9208,-3.913,-3.9187,-3.9282,-3.9296,-3.9315,-3.9537,-3.9474,-3.9555,-3.9686,-3.9761,-3.9787,-3.981,-3.9887,-3.9915,-3.9571,-3.9572,-3.9572,0,-3.9105,-3.9202,-3.9148,-3.923,-3.9255,-3.9162,-3.9263,-3.9277,-3.9308,-3.9327,-3.9267,-3.9383,-3.9388,-3.9517,-3.957,-3.959,-3.9615,-3.9553,-3.9788,-3.981,-3.9831,-3.9903,-3.9933,-3.9581,-3.958,-3.9579,-3.9578,0,-3.9351,-3.9421,-3.95,-3.9531,-3.9565,-3.9656,-3.9615,-3.9657,-3.9615,-3.9596,-3.9699,-3.9702,-3.9748,-3.9776,-3.9736,-3.9899,-3.9865,-3.9798,-3.9691,-3.9874,-3.994,-3.9968,-3.9595,-3.9591,-3.9589,-3.9586,0,0,-3.9661,-3.9661,-3.969,-3.9702,-3.9712,-3.9764,-3.9851,-3.9896,-3.9931,-3.9956,-4.0025,-4.0107,-4.0044,-4.0067,-4.0028,-4.0094,-4.0266,-4.0017,-4.0017,-4.0061,-4.0443,-4.0492,-4.0525,-4.0225,-4.023,-4.0234,-4.044,0,-3.9871,-4.0018,-3.9971,-4.0119,-4.0181,-4.0094,-4.0169,-4.0183,-4.0168,-4.0218,-4.0201,-4.026,-4.0174,-4.0186,-4.0247,-4.0232,-4.0341,-4.0217,-4.0287,-4.029,-4.0283,-4.056,-4.0612,-4.0806,-4.0466,-4.0471,-4.0474,0,-4.0136,-4.017,-4.0324,-4.0322,-4.0346,-4.0414,-4.045,-4.05,-4.0514,-4.0498,-4.0523,-4.047,-4.0553,-4.0448,-4.0561,-4.0477,-4.0504,-4.05,-4.0507,-4.0509,-4.0392,-4.0567,-4.0868,-4.0896,-4.0515,-4.0512,-4.0509,0,-4.0343,-4.0428,-4.053,-4.0543,-4.0544,-4.0593,-4.0596,-4.0604,-4.0633,-4.0665,-4.0683,-4.0726,-4.0748,-4.0782,-4.0741,-4.0668,-4.0859,-4.0751,-4.0847,-4.0848,-4.0889,-4.0887,-4.1195,-4.0912,-4.0911,-4.091,-4.091,0,-4.0581,-4.0678,-4.0622,-4.0685,-4.0791,-4.0737,-4.0843,-4.0836,-4.0843,-4.0902,-4.0831,-4.0888,-4.0832,-4.0884,-4.0853,-4.095,-4.0961,-4.095,-4.094,-4.0955,-4.0956,-4.0969,-4.0954,-4.0918,-4.0916,-4.0915,-4.0914,0,-4.0829,-4.0796,-4.0901,-4.0893,-4.0893,-4.0971,-4.0964,-4.1021,-4.1001,-4.1077,-4.1092,-4.106,-4.1117,-4.1081,-4.1139,-4.1118,-4.1244,-4.1217,-4.1239,-4.123,-4.1327,-4.1318,-4.1653,-4.1693,-4.1387,-4.139,-4.1392,0,-4.0981,-4.1054,-4.1053,-4.1087,-4.1095,-4.1151,-4.118,-4.113,-4.1164,-4.1184,-4.1239,-4.129,-4.1327,-4.1423,-4.1405,-4.1448,-4.142,-4.1535,-4.1426,-4.1438,-4.1418,-4.1413,-4.1419,-4.1556,-4.1559,-4.1562,-4.1565,0,-4.1255,-4.1235,-4.128,-4.1319,-4.1356,-4.1385,-4.1408,-4.144,-4.1389,-4.143,-4.1487,-4.1517,-4.1576,-4.1626,-4.1663,-4.1664,-4.1606,-4.1599,-4.1623,-4.1638,-4.1646,-4.164,-4.1296,-4.1591,-4.1589,-4.1587,-4.1585,-4.1584,-4.1458,-4.1517,-4.1525,-4.1577,-4.1589,-4.1612,-4.1665,-4.1651,-4.1698,-4.1741,-4.1709,-4.1777,-4.1787,-4.183,-4.1839,-4.189,-4.1844,-4.1879,-4.1888,-4.1897,-4.1909,-4.1641,-4.1897,-4.1897,-4.1896,-4.1895,-4.1895,0,-4.1725,-4.1726,-4.1774,-4.1808,-4.1849,-4.1791,-4.1813,-4.185,-4.1911,-4.1926,-4.1964,-4.2029,-4.2078,-4.2064,-4.2107,-4.2151,-4.2125,-4.2164,-4.2159,-4.2159,-4.1949,-4.1923,-4.2184,-4.2184,-4.2184,-4.2184,-4.2184,-4.2184,-4.1868,-4.1964,-4.1946,-4.2047,-4.2047,-4.2112,-4.2129,-4.2149,-4.2161,-4.2236,-4.2276,-4.2267,-4.227,-4.2313,-4.2355,-4.2349,-4.2367,-4.2415,-4.24,-4.2203,-4.2175,-4.2147,-4.2122,-4.242,-4.2421,-4.2605,-4.2607,-4.2608]},{"header":{"parameterUnit":"m.s-1","parameterCategory":1,"la1":30.2991,"la2":30.254,"lo1":-89.0895,"lo2":-89.0444,"dy":0.0017,"dx":0.0017,"nx":28,"ny":28,"refTime":"2024-12-22T03:00:00:Z","depth":0,"parameterNumber":3,"parameterNumberName":"V-component_of_WINDS"},"data":[0,0,0,0,0,0,0,0,0,0,0,0,0,0,0,0,0,0,0,0,0,0,0,0,0,0,0,0,0,0,0,0,0,0,0,0,0,0,0,0,0,0,0,0,0,0,0,0,0,0,0,0,0,0,0,0,0,0,-2.6912,-2.6912,0,-2.6964,-2.6964,-2.6965,-2.6933,-2.6932,-2.693,-2.6929,-2.698,-2.6983,-2.6985,0,0,0,0,0,0,0,0,0,0,0,0,0,-2.6783,-2.6786,-2.6912,-2.6913,-2.6913,-2.6963,-2.6964,-2.6965,-2.6934,-2.6932,-2.693,-2.6928,-2.6979,-2.6982,-2.6986,0,0,0,0,0,0,0,0,0,0,0,0,0,-2.6837,-2.6786,-2.6912,-2.6904,-2.6903,-2.6963,-2.6964,-2.6965,-2.6934,-2.6932,-2.6929,-2.6927,-2.6978,-2.6982,-2.6986,-2.7056,0,0,-2.6999,-2.7001,0,0,0,0,0,0,0,0,-2.6834,-2.6842,-2.6904,-2.6904,-2.6904,-2.694,-2.6937,-2.6996,-2.6934,-2.6922,-2.6929,-2.6926,-2.6968,-2.6973,-2.6988,-2.7059,-2.7061,-2.6999,-2.7002,-2.7003,-2.7005,0,0,0,0,0,0,0,-2.683,-2.684,-2.6932,-2.6905,-2.6905,-2.6896,-2.6902,-2.6948,-2.6957,-2.6923,-2.6921,-2.6928,-2.6968,-2.6984,-2.6989,-2.7062,-2.6999,-2.7003,-2.7005,-2.7007,-2.719,-2.7193,0,0,0,0,0,0,-2.6828,-2.6837,-2.6931,-2.6934,-2.6863,-2.69,-2.6906,-2.6931,-2.6957,-2.6958,-2.693,-2.6926,-2.6978,-2.6984,-2.699,-2.7073,-2.7003,-2.7007,-2.701,-2.7188,-2.7191,-2.7193,0,0,0,0,0,0,-2.6825,-2.6836,-2.6928,-2.6885,-2.6896,-2.6905,-2.6932,-2.6933,-2.6949,-2.6961,-2.6963,-2.6944,-2.6976,-2.6984,-2.704,-2.7074,-2.7009,-2.7013,-2.7185,-2.7189,-2.7192,-2.7239,0,0,0,0,0,0,-2.6821,-2.6836,-2.6863,-2.6886,-2.6898,-2.6978,-2.6935,-2.6935,-2.6956,-2.6952,-2.6976,-2.6977,-2.6975,-2.7034,-2.7044,-2.7078,-2.7016,-2.7182,-2.7187,-2.7191,-2.7234,-2.7243,-2.7251,0,0,0,0,0,-2.6817,-2.6874,-2.6865,-2.6876,-2.6933,-2.698,-2.6987,-2.6984,-2.6959,-2.6986,-2.6994,-2.6977,-2.7069,-2.704,-2.7051,-2.7087,-2.718,-2.7185,-2.7191,-2.723,-2.7242,-2.7251,0,0,0,0,0,0,-2.6856,-2.6877,-2.6867,-2.6934,-2.6955,-2.6975,-2.7009,-2.6997,-2.7026,-2.7021,-2.7015,-2.702,-2.7078,-2.7088,-2.7055,-2.7155,-2.712,-2.7128,-2.7146,-2.7157,-2.7166,-2.7162,-2.7019,0,0,0,0,0,-2.6872,-2.691,-2.6926,-2.6983,-2.6995,-2.7,-2.7021,-2.7016,-2.7038,-2.7047,-2.7059,-2.7081,-2.7114,-2.7136,-2.7168,-2.7235,-2.7239,-2.7266,-2.7274,-2.7281,-2.7288,-2.7322,-2.7334,-2.7211,-2.7211,-2.7211,0,0,-2.6906,-2.6923,-2.6947,-2.6991,-2.7008,-2.7045,-2.7008,-2.705,-2.7077,-2.7053,-2.7106,-2.7115,-2.7139,-2.72,-2.7227,-2.721,-2.7323,-2.7288,-2.7294,-2.7297,-2.7329,-2.7341,-2.7351,-2.7215,-2.7214,-2.7213,0,0,-2.6988,-2.7005,-2.7053,-2.707,-2.7095,-2.7098,-2.711,-2.7131,-2.7136,-2.7189,-2.7171,-2.7203,-2.7262,-2.7278,-2.7295,-2.738,-2.7364,-2.739,-2.7435,-2.7469,-2.7479,-2.7487,-2.7516,-2.7527,-2.7397,-2.7397,-2.7397,0,-2.7027,-2.7084,-2.7079,-2.7122,-2.7141,-2.7121,-2.7169,-2.7186,-2.722,-2.7233,-2.7213,-2.7285,-2.73,-2.7363,-2.7384,-2.7398,-2.741,-2.7388,-2.7478,-2.7486,-2.7494,-2.7521,-2.7533,-2.74,-2.74,-2.74,-2.7399,0,-2.7129,-2.7169,-2.7205,-2.7238,-2.7261,-2.7307,-2.7308,-2.7332,-2.7325,-2.733,-2.7382,-2.7399,-2.7433,-2.7448,-2.7441,-2.751,-2.7498,-2.7478,-2.7443,-2.7509,-2.7534,-2.7545,-2.7404,-2.7403,-2.7402,-2.7402,0,0,-2.7237,-2.7267,-2.728,-2.7294,-2.7319,-2.7349,-2.7393,-2.7426,-2.7446,-2.7469,-2.7504,-2.7554,-2.7535,-2.7553,-2.7548,-2.7578,-2.7642,-2.7554,-2.7554,-2.7569,-2.7717,-2.7731,-2.7743,-2.7632,-2.7634,-2.7636,-2.7714,0,-2.7319,-2.7396,-2.7392,-2.7463,-2.7498,-2.7479,-2.7516,-2.7535,-2.7541,-2.757,-2.7575,-2.761,-2.7583,-2.7594,-2.7622,-2.7629,-2.7672,-2.7623,-2.7664,-2.7665,-2.7658,-2.7757,-2.7773,-2.7846,-2.7724,-2.7726,-2.7727,0,-2.7425,-2.7452,-2.7527,-2.7545,-2.7559,-2.7593,-2.7622,-2.7652,-2.7672,-2.7673,-2.7693,-2.7683,-2.7725,-2.7689,-2.7746,-2.7713,-2.7729,-2.7735,-2.7737,-2.774,-2.77,-2.7762,-2.7869,-2.788,-2.7744,-2.7742,-2.7741,0,-2.7494,-2.7549,-2.76,-2.7613,-2.7636,-2.766,-2.7671,-2.7689,-2.7709,-2.7734,-2.7746,-2.7776,-2.7792,-2.7814,-2.7812,-2.7786,-2.7869,-2.7833,-2.787,-2.7871,-2.7889,-2.7887,-2.7999,-2.7901,-2.7901,-2.79,-2.79,0,-2.7585,-2.7631,-2.7632,-2.7663,-2.7713,-2.7708,-2.7758,-2.7766,-2.7782,-2.7813,-2.7798,-2.7828,-2.7823,-2.7853,-2.7851,-2.7898,-2.7905,-2.7907,-2.7905,-2.7908,-2.7907,-2.7918,-2.7912,-2.7903,-2.7903,-2.7902,-2.7902,0,-2.7671,-2.7674,-2.7728,-2.7745,-2.775,-2.7786,-2.78,-2.7829,-2.7833,-2.7872,-2.7881,-2.7886,-2.792,-2.792,-2.7959,-2.7957,-2.8014,-2.8007,-2.8007,-2.8005,-2.8042,-2.8038,-2.8164,-2.8179,-2.8072,-2.8073,-2.8074,0,-2.7729,-2.7764,-2.7784,-2.7804,-2.7816,-2.7849,-2.7869,-2.7865,-2.7885,-2.791,-2.7936,-2.7968,-2.7993,-2.8048,-2.8054,-2.8083,-2.8076,-2.8118,-2.808,-2.8081,-2.8075,-2.8073,-2.8075,-2.8125,-2.8127,-2.8128,-2.8128,0,-2.783,-2.7829,-2.7858,-2.7888,-2.7911,-2.7934,-2.7955,-2.7972,-2.797,-2.7994,-2.8028,-2.8048,-2.8086,-2.8118,-2.8145,-2.8155,-2.8141,-2.814,-2.815,-2.8152,-2.815,-2.815,-2.8026,-2.8137,-2.8136,-2.8136,-2.8135,-2.8135,-2.7903,-2.7932,-2.7951,-2.7983,-2.7998,-2.8018,-2.8045,-2.8051,-2.808,-2.8111,-2.8107,-2.8145,-2.8162,-2.8197,-2.8209,-2.8238,-2.8223,-2.8238,-2.8241,-2.8245,-2.8248,-2.8146,-2.8243,-2.8243,-2.8242,-2.8242,-2.8242,0,-2.8002,-2.8013,-2.8043,-2.8072,-2.8097,-2.8082,-2.8104,-2.8125,-2.8159,-2.8177,-2.8202,-2.824,-2.827,-2.8278,-2.8307,-2.8328,-2.8322,-2.8336,-2.8334,-2.8336,-2.826,-2.8248,-2.834,-2.834,-2.834,-2.834,-2.834,-2.834,-2.8056,-2.8105,-2.8106,-2.816,-2.817,-2.8208,-2.8221,-2.8238,-2.8252,-2.8296,-2.8321,-2.8326,-2.8339,-2.8368,-2.8395,-2.8396,-2.8407,-2.8423,-2.8422,-2.8351,-2.8341,-2.8332,-2.832,-2.8425,-2.8426,-2.8494,-2.8495,-2.8495]}]]